Live-Position
3D-Globus wird geladen...
Über Starlink 5142
Group: 3 satellites
Beschreibung wird geladen...
Nächste Überflüge
Passes for default location (London). Set your location on the main map for personalized predictions.
Höhenverlauf
Loading altitude history...
No altitude history available
Zweizeiliger Elementsatz
1 53984U 22125W 26122.89586742 -.00000366 00000-0 -48801-5 0 9996
2 53984 53.2181 330.9345 0001437 87.0084 273.1073 15.08835135197649
Epoch: 2. Mai 2026 •
Age: 6 hours
Aktueller Status
Höhe 550.9 km
Geschwindigkeit 7.59 km/s
Subsatellitenpunkt -33.28°S,
90.78°W
Startdatum 5. Okt. 2022
Alter 3.5 years
Typ internet
Startgruppe
Falcon 9 •
Group 4-29 •
43 satellites
Starlink 4633
53964
Starlink 4635 53966
Starlink 4634 53967
Starlink 4629 53968
Starlink 4468 53969
Starlink 4567 53970
Starlink 5156 53973
Starlink 5159 53974
Starlink 5137 53975
Starlink 5134 53976
Starlink 5094 53977
Starlink 5148 53978
Starlink 5123 53979
Starlink 5133 53980
Starlink 5149 53981
Starlink 5120 53982
Starlink 5147 53985
Starlink 5119 53986
Starlink 5113 53988
Starlink 5118 53991
...and 22 more
Technische Details
Klassifizierung Payload
Masse 305.00 kg
Trockenmasse 290.00 kg
Gesamtmasse 305.00 kg
Länge 0.20 m
Durchmesser 2.80 m
Spannweite 9.00 m
Form Box + pan
Hersteller SPXS
Bus-Typ Starlink
Phasenstatus In Orbit
Besitzer/Staat SPXS/US
Most Searched
Loading...